This demonstration page uses our WeatherBlox Daily Observations layout. Learn more.

Left ArrowRight Arrow

39.92423, -83.80882

Hourly Observations for February 13, 2016

Temp ( °F °C ) Dew Point ( °F °C ) Humidity (%) Winds ( mph kmh ) Pressure ( in mb ) Visibility ( mi km ) Precip ( " mm )
12:06 am 00:06 Mostly Cloudy with Light Snow 14 -10 9 -13 79 79 W 10 17 30.36 1028 10 16 N/A
12:18 am 00:18 Mostly Cloudy 12 -11 9 -13 85 85 W 14 22 30.39 1029 10 16 N/A
12:34 am 00:34 Partly Cloudy 12 -11 7 -14 79 79 W 15 24 30.39 1029 10 16 N/A
12:56 am 00:56 Clear 13 -10.5 5 -15 70 70 WNW 14 22 30.32 1027 10 16 N/A
1:56 am 01:56 Mostly Cloudy 13 -10.5 5 -15 70 70 WNW 14 22 30.34 1028 10 16 N/A
2:56 am 02:56 Cloudy with Light Snow 13 -10.5 7 -13.8 77 77 WNW 12 19 30.36 1028 6 10 N/A
3:07 am 03:07 Cloudy with Light Snow 12 -11 7 -14 79 79 WNW 12 19 30.42 1030 6 10 N/A
3:14 am 03:14 Mostly Cloudy with Light Snow 12 -11 9 -13 85 85 WNW 10 17 30.42 1030 2 3 N/A
3:21 am 03:21 Cloudy with Light Snow 12 -11 9 -13 85 85 NW 10 17 30.42 1030 2 2 N/A
3:32 am 03:32 Cloudy with Light Snow 12 -11 9 -13 85 85 WNW 13 20 30.42 1030 3 5 N/A
3:56 am 03:56 Mostly Cloudy with Light Snow 12 -11.1 3 -16.1 67 67 NW 13 20 30.39 1029 10 16 N/A
4:56 am 04:56 Mostly Cloudy 10 -12.2 1 -17.2 67 67 NW 10 17 30.42 1030 10 16 N/A
5:56 am 05:56 Mostly Cloudy 8 -13.3 N/A 70 70 NW 12 19 30.46 1032 10 16 N/A
6:56 am 06:56 Clear 6 -14.4 -3 -19.4 66 66 NW 9 15 30.49 1033 10 16 N/A
7:56 am 07:56 Sunny 4 -15.5 -5 -20.5 66 66 NW 9 15 30.52 1034 10 16 N/A
8:56 am 08:56 Sunny 6 -14.4 -5 -20.5 60 60 WNW 8 13 30.55 1034 10 16 N/A
9:56 am 09:56 Sunny 9 -12.7 -6 -21.1 50 50 NW 9 15 30.56 1035 10 16 N/A
10:56 am 10:56 Sunny 10 -12.2 -6 -21.1 48 48 W 9 15 30.57 1035 10 16 N/A
11:56 am 11:56 Sunny 13 -10.5 -3 -19.4 48 48 WNW 13 20 30.57 1035 10 16 N/A
12:56 pm 12:56 Mostly Cloudy 14 -10 -1 -18.3 51 51 W 15 24 30.56 1035 10 16 N/A
1:56 pm 13:56 Mostly Cloudy 14 -10 1 -17.2 56 56 W 15 24 30.55 1035 10 16 N/A
2:56 pm 14:56 Mostly Cloudy 14 -10 2 -16.6 59 59 WNW 13 20 30.54 1034 10 16 N/A
3:56 pm 15:56 Cloudy 14 -10 2 -16.6 59 59 WNW 15 24 30.54 1034 10 16 N/A
4:56 pm 16:56 Mostly Cloudy 13 -10.5 1 -17.2 58 58 W 13 20 30.55 1034 10 16 N/A
5:56 pm 17:56 Partly Cloudy 13 -10.5 1 -17.2 58 58 WNW 8 13 30.55 1035 10 16 N/A
6:56 pm 18:56 Clear 9 -12.7 -1 -18.3 63 63 W 6 9 30.56 1035 10 16 N/A
7:56 pm 19:56 Clear 8 -13.3 -1 -18.3 66 66 WSW 5 7 30.56 1035 10 16 N/A
8:56 pm 20:56 Clear 5 -15 -2 -18.8 73 73 N N/A 30.56 1035 10 16 N/A
9:56 pm 21:56 Clear 4 -15.5 -1 -18.3 79 79 N N/A 30.55 1035 10 16 N/A
10:56 pm 22:56 Clear 4 -15.5 -1 -18.3 79 79 W 3 6 30.55 1034 10 16 N/A
11:56 pm 23:56 Clear 3 -16.1 -3 -19.4 76 76 N N/A 30.54 1034 10 16 N/A

Powered by AerisWeather